ISS (ZARYA) (25544 NORAD) Tracking and Keplerian Element Data

This shows tracking and keplerian element data for the satellite.

Feedback or suggestion? Click here.




ElementValue
Catalog25544
NameISS (ZARYA)
Epoch Orbit54401
Epoch Day354.21533065
Epoch Year2025
RAAN105.4589
Inclination51.6321
Eccentricity0.0003198
Argument of Perigee275.1086
Mean Anonmoly84.9538
Mean Motion15.49679666
Decay Rate6.989E-05
L11 25544U 98067A 25354.21533065 .00006989 00000+0 13177-3 0 9997
L22 25544 51.6321 105.4589 0003198 275.1086 84.9538 15.49679666544012



Live tracking and technical data element details for ISS (ZARYA) (NORAD 25544). ISS (ZARYA) can be tracked NOW for your location showing map with azimuth and elevation plus other details from your city location.







IsCatalogInMostPopularTable: catalog: 25544, numindb: 201702
Update: records affected: 1



GetName: 25544 ISS (ZARYA)

Hit Count: updated at: Mon, 11 May 2026 12:03:31 GMT